sat.trackr.live / text

‹ back to catalog

STARLINK-34733

NORAD 66487 · 2025-263C

PAYLOAD ACTIVE UNKNOWN

§ Identity

Operator
Country
US
Launch date
2025-11-15
Launch site
AFETR
Launch vehicle
Mass (kg)
RCS (m²)

Purposes: comms

External: N2YO · Heavens-Above · Gunter

§ Orbital elements

Epoch: 2026-09-20T11:33:22.540032Z

Period
94.27 min
Inclination
42.9995°
Eccentricity
0.0000485
Mean motion
15.27590747 rev/d
Perigee alt
482.7 km
Apogee alt
483.3 km
Semi-major
6,861.2 km
B*
3.7004e-4
RAAN
330.2858°
Arg perigee
255.0802°
Mean anomaly
104.9996°
Rev number
4,869

§ Raw data

STARLINK-347331 66487U 25263C   26263.48151088  .00009938  00000+0  37004-3 0  99982 66487  42.9995 330.2858 0000485 255.0802 104.9996 15.27590747 48691

JSON: /api/v1/satellites/66487 · /tle

For live sub-satellite position, see the globe view (requires WebGL).

§ Visibility from observer

Set your observer location to see the next 7 days of passes ≥ 10°. The values pass through the URL so the page stays shareable.

No JS? Fill the form by hand. The geolocation button needs JavaScript.